When you browse on this site, cookies collect data to enhance your experience and personalize the content and advertising you see.
Visit our Privacy Policy to learn more. By continuing to use the site, you agree to this use of cookies and data.
  • In Austria
  • List of Countries
  • For 7 days
  • Water Temperature
  • Weather Map
  • News
  • Weather Widgets
  • user-avatar
    Login

    Hourly Weather Montana

    Today, 15 October, Tuesday

    Time Temperature Precipitation Wind Pressure Humidity
    00:00 +19°C° 0 mm 1 mps 737 mmHg 55%
    01:00 +18°C° 0 mm 1 mps 737 mmHg 54%
    02:00 +18°C° 0 mm 1 mps 737 mmHg 54%
    03:00 +18°C° 0 mm 1 mps 737 mmHg 55%
    04:00 +16°C° 0 mm 1 mps 736 mmHg 56%
    05:00 +16°C° 0 mm 1 mps 736 mmHg 57%
    06:00 +15°C° 0 mm 0 mps 736 mmHg 56%
    07:00 +16°C° 0 mm 0 mps 736 mmHg 55%
    08:00 +17°C° 0 mm 0 mps 737 mmHg 54%
    09:00 +21°C° 0 mm 1 mps 736 mmHg 49%
    10:00 +23°C° 0 mm 1 mps 736 mmHg 43%
    11:00 +25°C° 0 mm 1 mps 736 mmHg 37%
    12:00 +26°C° 0 mm 1 mps 736 mmHg 35%
    13:00 +27°C° 0 mm 2 mps 735 mmHg 32%
    14:00 +28°C° 0 mm 2 mps 735 mmHg 29%
    15:00 +27°C° 0 mm 1 mps 735 mmHg 32%
    16:00 +26°C° 0 mm 1 mps 734 mmHg 34%
    17:00 +25°C° 0 mm 1 mps 734 mmHg 37%
    18:00 +23°C° 0 mm 1 mps 734 mmHg 40%
    19:00 +22°C° 0 mm 1 mps 734 mmHg 43%
    20:00 +20°C° 0 mm 1 mps 735 mmHg 46%
    21:00 +20°C° 0 mm 1 mps 735 mmHg 47%
    22:00 +19°C° 0 mm 1 mps 735 mmHg 47%
    23:00 +19°C° 0 mm 1 mps 735 mmHg 47%

    Tomorrow, 16 October, Wednesday

    Time Temperature Precipitation Wind Pressure Humidity
    00:00 +18°C° 0 mm 1 mps 735 mmHg 47%
    01:00 +18°C° 0 mm 1 mps 735 mmHg 48%
    02:00 +16°C° 0 mm 1 mps 735 mmHg 48%
    03:00 +16°C° 0 mm 1 mps 735 mmHg 50%
    04:00 +15°C° 0 mm 1 mps 735 mmHg 52%
    05:00 +15°C° 0 mm 1 mps 734 mmHg 54%
    06:00 +14°C° 0 mm 0 mps 735 mmHg 53%
    07:00 +15°C° 0 mm 0 mps 735 mmHg 52%
    08:00 +16°C° 0 mm 0 mps 735 mmHg 51%
    09:00 +20°C° 0 mm 1 mps 735 mmHg 45%
    10:00 +22°C° 0 mm 1 mps 735 mmHg 40%
    11:00 +24°C° 0 mm 1 mps 736 mmHg 35%
    12:00 +25°C° 0 mm 1 mps 735 mmHg 34%
    13:00 +26°C° 0 mm 1 mps 735 mmHg 32%
    14:00 +26°C° 0 mm 1 mps 735 mmHg 30%
    15:00 +26°C° 0 mm 1 mps 734 mmHg 33%
    16:00 +25°C° 0 mm 1 mps 734 mmHg 37%
    17:00 +24°C° 0 mm 1 mps 734 mmHg 40%
    18:00 +22°C° 0 mm 1 mps 734 mmHg 43%
    19:00 +21°C° 0 mm 1 mps 734 mmHg 46%
    20:00 +19°C° 0 mm 1 mps 735 mmHg 50%
    21:00 +19°C° 0 mm 1 mps 735 mmHg 50%
    22:00 +18°C° 0 mm 1 mps 735 mmHg 51%
    23:00 +18°C° 0 mm 1 mps 735 mmHg 51%

    Day after tomorrow, 17 October, Thursday

    Time Temperature Precipitation Wind Pressure Humidity
    00:00 +16°C° 0 mm 0 mps 735 mmHg 52%
    01:00 +15°C° 0 mm 0 mps 735 mmHg 52%
    02:00 +15°C° 0 mm 0 mps 735 mmHg 53%
    03:00 +15°C° 0 mm 0 mps 735 mmHg 54%
    04:00 +14°C° 0 mm 0 mps 735 mmHg 56%
    05:00 +14°C° 0 mm 0 mps 735 mmHg 58%
    06:00 +15°C° 0 mm 0 mps 736 mmHg 56%
    07:00 +15°C° 0 mm 0 mps 736 mmHg 55%
    08:00 +16°C° 0 mm 0 mps 736 mmHg 54%
    09:00 +18°C° 0 mm 0 mps 736 mmHg 49%
    10:00 +22°C° 0 mm 1 mps 736 mmHg 43%
    11:00 +24°C° 0 mm 1 mps 736 mmHg 37%
    12:00 +25°C° 0 mm 1 mps 736 mmHg 35%
    13:00 +26°C° 0 mm 1 mps 736 mmHg 33%
    14:00 +27°C° 0 mm 1 mps 735 mmHg 31%
    15:00 +26°C° 0 mm 1 mps 735 mmHg 34%
    16:00 +25°C° 0 mm 1 mps 735 mmHg 37%
    17:00 +24°C° 0 mm 1 mps 735 mmHg 40%
    18:00 +22°C° 0 mm 1 mps 735 mmHg 43%
    19:00 +21°C° 0 mm 1 mps 735 mmHg 46%
    20:00 +19°C° 0 mm 1 mps 735 mmHg 50%
    21:00 +19°C° 0 mm 1 mps 736 mmHg 50%
    22:00 +19°C° 0 mm 1 mps 736 mmHg 51%
    23:00 +18°C° 0 mm 1 mps 736 mmHg 51%

    18 October, Friday

    Time Temperature Precipitation Wind Pressure Humidity
    00:00 +16°C° 0 mm 0 mps 736 mmHg 51%
    01:00 +16°C° 0 mm 0 mps 736 mmHg 52%
    02:00 +15°C° 0 mm 0 mps 736 mmHg 52%
    03:00 +15°C° 0 mm 0 mps 736 mmHg 53%
    04:00 +15°C° 0 mm 0 mps 736 mmHg 54%
    05:00 +14°C° 0 mm 0 mps 736 mmHg 56%
    06:00 +15°C° 0 mm 0 mps 736 mmHg 55%
    07:00 +15°C° 0 mm 0 mps 736 mmHg 54%
    08:00 +16°C° 0 mm 0 mps 736 mmHg 53%
    09:00 +18°C° 0 mm 0 mps 736 mmHg 47%
    10:00 +22°C° 0 mm 1 mps 737 mmHg 42%
    11:00 +24°C° 0 mm 1 mps 737 mmHg 36%
    12:00 +25°C° 0 mm 1 mps 736 mmHg 35%
    13:00 +26°C° 0 mm 2 mps 736 mmHg 33%
    14:00 +26°C° 0 mm 2 mps 736 mmHg 31%
    15:00 +26°C° 0 mm 2 mps 735 mmHg 33%
    16:00 +25°C° 0 mm 1 mps 735 mmHg 36%
    17:00 +24°C° 0 mm 1 mps 735 mmHg 39%
    18:00 +22°C° 0 mm 1 mps 735 mmHg 41%
    19:00 +21°C° 0 mm 1 mps 735 mmHg 44%
    20:00 +19°C° 0 mm 1 mps 736 mmHg 47%
    21:00 +19°C° 0 mm 1 mps 736 mmHg 48%
    22:00 +19°C° 0 mm 1 mps 736 mmHg 48%
    23:00 +18°C° 0 mm 1 mps 736 mmHg 49%

    19 October, Saturday

    Time Temperature Precipitation Wind Pressure Humidity
    00:00 +18°C° 0 mm 1 mps 736 mmHg 50%
    01:00 +18°C° 0 mm 1 mps 736 mmHg 51%
    02:00 +15°C° 0 mm 0 mps 736 mmHg 53%
    03:00 +15°C° 0 mm 0 mps 736 mmHg 54%
    04:00 +14°C° 0 mm 0 mps 736 mmHg 55%
    05:00 +14°C° 0 mm 0 mps 736 mmHg 56%
    06:00 +15°C° 0 mm 0 mps 736 mmHg 56%
    07:00 +15°C° 0 mm 0 mps 736 mmHg 55%
    08:00 +16°C° 0 mm 0 mps 737 mmHg 54%
    09:00 +19°C° 0 mm 1 mps 737 mmHg 48%
    10:00 +21°C° 0 mm 1 mps 737 mmHg 43%
    11:00 +23°C° 0 mm 1 mps 737 mmHg 38%
    12:00 +24°C° 0 mm 1 mps 736 mmHg 36%
    13:00 +25°C° 0 mm 2 mps 736 mmHg 34%
    14:00 +26°C° 0 mm 2 mps 736 mmHg 33%
    15:00 +25°C° 0 mm 1 mps 736 mmHg 36%
    16:00 +24°C° 0 mm 1 mps 735 mmHg 39%
    17:00 +23°C° 0 mm 1 mps 735 mmHg 42%
    18:00 +22°C° 0 mm 1 mps 735 mmHg 45%
    19:00 +21°C° 0 mm 1 mps 736 mmHg 48%
    20:00 +19°C° 0 mm 1 mps 736 mmHg 51%
    21:00 +19°C° 0 mm 1 mps 736 mmHg 52%
    22:00 +18°C° 0 mm 1 mps 736 mmHg 53%
    23:00 +18°C° 0 mm 1 mps 736 mmHg 54%

    20 October, Sunday

    Time Temperature Precipitation Wind Pressure Humidity
    00:00 +18°C° 0 mm 1 mps 736 mmHg 54%
    01:00 +16°C° 0 mm 1 mps 736 mmHg 54%
    02:00 +16°C° 0 mm 1 mps 736 mmHg 55%
    03:00 +15°C° 0 mm 1 mps 736 mmHg 56%
    04:00 +15°C° 0 mm 1 mps 736 mmHg 58%
    05:00 +15°C° 0 mm 1 mps 736 mmHg 59%
    06:00 +15°C° 0 mm 1 mps 736 mmHg 59%
    07:00 +15°C° 0 mm 1 mps 736 mmHg 58%
    08:00 +16°C° 0 mm 1 mps 736 mmHg 58%
    09:00 +19°C° 0 mm 1 mps 736 mmHg 52%
    10:00 +21°C° 0 mm 1 mps 736 mmHg 46%
    11:00 +23°C° 0 mm 1 mps 736 mmHg 41%
    12:00 +24°C° 0 mm 1 mps 736 mmHg 38%
    13:00 +25°C° 0 mm 2 mps 736 mmHg 35%
    14:00 +26°C° 0 mm 2 mps 736 mmHg 33%
    15:00 +25°C° 0 mm 1 mps 736 mmHg 36%
    16:00 +24°C° 0 mm 1 mps 735 mmHg 38%
    17:00 +23°C° 0 mm 1 mps 735 mmHg 41%
    18:00 +22°C° 0 mm 1 mps 735 mmHg 44%
    19:00 +20°C° 0 mm 1 mps 736 mmHg 48%
    20:00 +19°C° 0 mm 1 mps 736 mmHg 51%
    21:00 +19°C° 0 mm 1 mps 736 mmHg 52%
    22:00 +18°C° 0 mm 1 mps 737 mmHg 52%
    23:00 +18°C° 0 mm 1 mps 737 mmHg 53%
    Show more